• In Österreich
  • Länderverzeichnis
  • Für 7 Tage
  • Wassertemperatur
  • Satellitenkarten
  • Wetterkarte
  • News
  • Widgets
  • user-avatar
    Anmelden

    Stündliche Wetter Dubovik

    Heute, 23 Oktober, Dienstag

    Zeit Temperatur Niederschläge Wind Luftdruck Luftfeuchtigkeit
    00:00 +4°C° 0.6 mm 4 m/S 733 mmHg 88%
    01:00 +4°C° 0.6 mm 4 m/S 733 mmHg 89%
    02:00 +4°C° 0.6 mm 3 m/S 732 mmHg 91%
    03:00 +4°C° 0.4 mm 3 m/S 732 mmHg 91%
    04:00 +4°C° 0.4 mm 3 m/S 731 mmHg 91%
    05:00 +4°C° 0.4 mm 3 m/S 731 mmHg 91%
    06:00 +4°C° 0 mm 3 m/S 731 mmHg 91%
    07:00 +3°C° 0 mm 3 m/S 731 mmHg 91%
    08:00 +4°C° 0 mm 2 m/S 731 mmHg 91%
    09:00 +4°C° 0 mm 2 m/S 730 mmHg 87%
    10:00 +5°C° 0 mm 2 m/S 730 mmHg 83%
    11:00 +5°C° 0 mm 2 m/S 730 mmHg 79%
    12:00 +6°C° 0 mm 2 m/S 729 mmHg 75%
    13:00 +6°C° 0 mm 2 m/S 728 mmHg 72%
    14:00 +6°C° 0 mm 2 m/S 727 mmHg 68%
    15:00 +6°C° 0 mm 2 m/S 727 mmHg 72%
    16:00 +5°C° 0 mm 2 m/S 726 mmHg 76%
    17:00 +4°C° 0 mm 2 m/S 725 mmHg 80%
    18:00 +4°C° 0 mm 2 m/S 724 mmHg 81%
    19:00 +3°C° 0 mm 3 m/S 723 mmHg 81%
    20:00 +3°C° 0 mm 3 m/S 723 mmHg 82%
    21:00 +3°C° 0.1 mm 3 m/S 722 mmHg 81%
    22:00 +3°C° 0.1 mm 3 m/S 721 mmHg 80%
    23:00 +3°C° 0.1 mm 3 m/S 720 mmHg 80%

    Morgen, 24 Oktober, Mittwoch

    Zeit Temperatur Niederschläge Wind Luftdruck Luftfeuchtigkeit
    00:00 +3°C° 0.1 mm 4 m/S 719 mmHg 80%
    01:00 +3°C° 0.1 mm 4 m/S 718 mmHg 81%
    02:00 +1°C° 0.1 mm 5 m/S 717 mmHg 81%
    03:00 +2°C° 0.4 mm 5 m/S 716 mmHg 82%
    04:00 +2°C° 0.4 mm 5 m/S 715 mmHg 83%
    05:00 +2°C° 0.4 mm 5 m/S 714 mmHg 84%
    06:00 +3°C° 0.4 mm 4 m/S 714 mmHg 85%
    07:00 +3°C° 0.4 mm 4 m/S 713 mmHg 85%
    08:00 +3°C° 0.4 mm 4 m/S 713 mmHg 86%
    09:00 +3°C° 0.2 mm 4 m/S 713 mmHg 86%
    10:00 +3°C° 0.2 mm 3 m/S 713 mmHg 85%
    11:00 +4°C° 0.2 mm 3 m/S 713 mmHg 85%
    12:00 +4°C° 0.5 mm 3 m/S 713 mmHg 86%
    13:00 +5°C° 0.5 mm 2 m/S 713 mmHg 86%
    14:00 +5°C° 0.5 mm 2 m/S 713 mmHg 87%
    15:00 +4°C° 0.4 mm 2 m/S 713 mmHg 89%
    16:00 +4°C° 0.4 mm 2 m/S 714 mmHg 91%
    17:00 +4°C° 0.4 mm 2 m/S 714 mmHg 93%
    18:00 +4°C° 0.3 mm 2 m/S 714 mmHg 93%
    19:00 +4°C° 0.3 mm 2 m/S 715 mmHg 93%
    20:00 +4°C° 0.3 mm 2 m/S 715 mmHg 93%
    21:00 +4°C° 0.3 mm 2 m/S 716 mmHg 93%
    22:00 +3°C° 0.3 mm 3 m/S 716 mmHg 93%
    23:00 +3°C° 0.3 mm 3 m/S 716 mmHg 93%

    übermorgen, 25 Oktober, Donnerstag

    Zeit Temperatur Niederschläge Wind Luftdruck Luftfeuchtigkeit
    00:00 +3°C° 0.3 mm 3 m/S 716 mmHg 92%
    01:00 +3°C° 0.3 mm 3 m/S 717 mmHg 91%
    02:00 +3°C° 0.3 mm 3 m/S 717 mmHg 91%
    03:00 +1°C° 0.2 mm 4 m/S 717 mmHg 90%
    04:00 +1°C° 0.2 mm 4 m/S 717 mmHg 88%
    05:00 +1°C° 0.2 mm 4 m/S 717 mmHg 87%
    06:00 +1°C° 0 mm 5 m/S 717 mmHg 86%
    07:00 0°C° 0 mm 5 m/S 717 mmHg 84%
    08:00 0°C° 0 mm 5 m/S 717 mmHg 82%
    09:00 0°C° 0 mm 5 m/S 717 mmHg 80%
    10:00 0°C° 0 mm 5 m/S 717 mmHg 79%
    11:00 +1°C° 0 mm 6 m/S 717 mmHg 77%
    12:00 +1°C° 0 mm 6 m/S 717 mmHg 76%
    13:00 +1°C° 0 mm 6 m/S 717 mmHg 75%
    14:00 +1°C° 0 mm 6 m/S 716 mmHg 75%
    15:00 +1°C° 0.1 mm 6 m/S 717 mmHg 75%
    16:00 -1°C° 0.1 mm 6 m/S 717 mmHg 76%
    17:00 -1°C° 0.1 mm 6 m/S 717 mmHg 76%
    18:00 -1°C° 0 mm 6 m/S 717 mmHg 76%
    19:00 0°C° 0 mm 5 m/S 717 mmHg 76%
    20:00 0°C° 0 mm 5 m/S 718 mmHg 76%
    21:00 0°C° 0 mm 5 m/S 718 mmHg 79%
    22:00 -1°C° 0 mm 5 m/S 718 mmHg 81%
    23:00 -1°C° 0 mm 5 m/S 719 mmHg 84%

    26 Oktober, Freitag

    Zeit Temperatur Niederschläge Wind Luftdruck Luftfeuchtigkeit
    00:00 -1°C° 0 mm 5 m/S 719 mmHg 84%
    01:00 -1°C° 0 mm 5 m/S 720 mmHg 84%
    02:00 -1°C° 0 mm 4 m/S 721 mmHg 85%
    03:00 -1°C° 0 mm 4 m/S 721 mmHg 85%
    04:00 -1°C° 0 mm 4 m/S 722 mmHg 85%
    05:00 -1°C° 0 mm 4 m/S 722 mmHg 86%
    06:00 -1°C° 0 mm 4 m/S 722 mmHg 86%
    07:00 -1°C° 0 mm 4 m/S 723 mmHg 87%
    08:00 -1°C° 0 mm 4 m/S 723 mmHg 87%
    09:00 0°C° 0 mm 4 m/S 724 mmHg 85%
    10:00 0°C° 0 mm 4 m/S 724 mmHg 83%
    11:00 +1°C° 0 mm 4 m/S 724 mmHg 82%
    12:00 +1°C° 0.1 mm 4 m/S 725 mmHg 81%
    13:00 +1°C° 0.1 mm 4 m/S 725 mmHg 80%
    14:00 +1°C° 0.1 mm 4 m/S 725 mmHg 79%
    15:00 +1°C° 0.1 mm 4 m/S 726 mmHg 80%
    16:00 +1°C° 0.1 mm 4 m/S 726 mmHg 81%
    17:00 +2°C° 0.1 mm 3 m/S 726 mmHg 82%
    18:00 +1°C° 0.1 mm 3 m/S 727 mmHg 84%
    19:00 +1°C° 0.1 mm 3 m/S 727 mmHg 86%
    20:00 +1°C° 0.1 mm 3 m/S 728 mmHg 87%
    21:00 0°C° 0 mm 3 m/S 728 mmHg 89%
    22:00 0°C° 0 mm 3 m/S 728 mmHg 91%
    23:00 0°C° 0 mm 3 m/S 729 mmHg 93%

    27 Oktober, Samstag

    Zeit Temperatur Niederschläge Wind Luftdruck Luftfeuchtigkeit
    00:00 -1°C° 0 mm 3 m/S 729 mmHg 93%
    01:00 -1°C° 0 mm 3 m/S 730 mmHg 94%
    02:00 -1°C° 0 mm 3 m/S 730 mmHg 95%
    03:00 -2°C° 0 mm 2 m/S 730 mmHg 96%
    04:00 -2°C° 0 mm 2 m/S 731 mmHg 96%
    05:00 -2°C° 0 mm 2 m/S 731 mmHg 97%
    06:00 -1°C° 0 mm 2 m/S 731 mmHg 95%
    07:00 -1°C° 0 mm 2 m/S 731 mmHg 94%
    08:00 -1°C° 0 mm 2 m/S 732 mmHg 93%
    09:00 +1°C° 0 mm 3 m/S 731 mmHg 88%
    10:00 +2°C° 0 mm 3 m/S 731 mmHg 83%
    11:00 +3°C° 0 mm 4 m/S 731 mmHg 79%
    12:00 +3°C° 0.1 mm 4 m/S 731 mmHg 79%
    13:00 +4°C° 0.1 mm 4 m/S 730 mmHg 80%
    14:00 +3°C° 0.1 mm 5 m/S 730 mmHg 80%
    15:00 +3°C° 0.2 mm 5 m/S 729 mmHg 82%
    16:00 +3°C° 0.2 mm 5 m/S 729 mmHg 84%
    17:00 +3°C° 0.2 mm 6 m/S 729 mmHg 86%
    18:00 +3°C° 0.2 mm 5 m/S 728 mmHg 86%
    19:00 +5°C° 0.2 mm 5 m/S 728 mmHg 86%
    20:00 +5°C° 0.2 mm 5 m/S 728 mmHg 85%
    21:00 +5°C° 0.1 mm 5 m/S 729 mmHg 86%
    22:00 +5°C° 0.1 mm 4 m/S 729 mmHg 87%
    23:00 +5°C° 0.1 mm 4 m/S 729 mmHg 87%

    28 Oktober, Sonntag

    Zeit Temperatur Niederschläge Wind Luftdruck Luftfeuchtigkeit
    00:00 +4°C° 0.1 mm 3 m/S 729 mmHg 89%
    01:00 +4°C° 0.1 mm 3 m/S 729 mmHg 91%
    02:00 +4°C° 0.1 mm 3 m/S 729 mmHg 93%
    03:00 +5°C° 0.1 mm 2 m/S 729 mmHg 93%
    04:00 +5°C° 0.1 mm 2 m/S 729 mmHg 94%
    05:00 +4°C° 0.1 mm 2 m/S 729 mmHg 95%
    06:00 +5°C° 0.3 mm 2 m/S 729 mmHg 96%
    07:00 +6°C° 0.3 mm 1 m/S 729 mmHg 96%
    08:00 +6°C° 0.3 mm 1 m/S 729 mmHg 96%
    09:00 +6°C° 0.5 mm 1 m/S 729 mmHg 96%
    10:00 +6°C° 0.5 mm 1 m/S 729 mmHg 95%
    11:00 +7°C° 0.5 mm 1 m/S 729 mmHg 95%
    12:00 +7°C° 1.2 mm 1 m/S 728 mmHg 96%
    13:00 +6°C° 1.2 mm 1 m/S 728 mmHg 97%
    14:00 +6°C° 1.2 mm 1 m/S 728 mmHg 97%
    15:00 +6°C° 2 mm 1 m/S 727 mmHg 97%
    16:00 +5°C° 2 mm 2 m/S 727 mmHg 97%
    17:00 +5°C° 2 mm 2 m/S 726 mmHg 97%
    18:00 +6°C° 0.6 mm 2 m/S 726 mmHg 97%
    19:00 +6°C° 0.6 mm 2 m/S 725 mmHg 96%
    20:00 +7°C° 0.6 mm 3 m/S 725 mmHg 96%
    21:00 +7°C° 0.2 mm 4 m/S 725 mmHg 94%
    22:00 +8°C° 0.2 mm 4 m/S 725 mmHg 92%
    23:00 +8°C° 0.2 mm 5 m/S 725 mmHg 90%

    29 Oktober, Montag

    Zeit Temperatur Niederschläge Wind Luftdruck Luftfeuchtigkeit
    00:00 +7°C° 0.1 mm 6 m/S 726 mmHg 87%
    01:00 +5°C° 0.1 mm 6 m/S 727 mmHg 84%
    02:00 +4°C° 0.1 mm 7 m/S 727 mmHg 82%
    03:00 +3°C° 0 mm 6 m/S 729 mmHg 81%
    04:00 +3°C° 0 mm 6 m/S 730 mmHg 81%
    05:00 +2°C° 0 mm 5 m/S 731 mmHg 81%
    06:00 +2°C° 0 mm 5 m/S 732 mmHg 81%
    07:00 +2°C° 0 mm 5 m/S 733 mmHg 82%
    08:00 +2°C° 0 mm 5 m/S 734 mmHg 83%
    09:00 +3°C° 0 mm 5 m/S 735 mmHg 80%
    10:00 +3°C° 0 mm 5 m/S 736 mmHg 78%
    11:00 +4°C° 0 mm 4 m/S 736 mmHg 75%
    12:00 +4°C° 0 mm 4 m/S 737 mmHg 76%
    13:00 +4°C° 0 mm 4 m/S 738 mmHg 76%
    14:00 +4°C° 0 mm 4 m/S 738 mmHg 77%
    15:00 +4°C° 0 mm 3 m/S 739 mmHg 80%
    16:00 +3°C° 0 mm 3 m/S 739 mmHg 82%
    17:00 +4°C° 0 mm 2 m/S 740 mmHg 85%
    18:00 +3°C° 0 mm 2 m/S 740 mmHg 87%
    19:00 +3°C° 0 mm 2 m/S 740 mmHg 88%
    20:00 +3°C° 0 mm 2 m/S 741 mmHg 90%
    21:00 +2°C° 0 mm 2 m/S 741 mmHg 90%
    22:00 +3°C° 0 mm 1 m/S 742 mmHg 91%
    23:00 +3°C° 0 mm 1 m/S 742 mmHg 91%
    Mehr zeigen